| time (UTC) | temp C | wind direction | speed KPH | gust KPH | rain 1hr cm | rain 24hr cm | rain mn cm | humidity % | barometer mb |
| 20260502123013 | 10 | 272 | 0.0 | 3.2 | 0.00 | 0.03 | 0.03 | 86 | 1018.8 |
| 20260502121537 | 10 | 231 | 0.0 | 9.7 | 0.00 | 0.03 | 0.03 | 87 | 1018.8 |
| 20260502120116 | 10 | 259 | 0.0 | 0.0 | 0.00 | 0.03 | 0.03 | 86 | 1018.9 |
| 20260502114612 | 10 | 264 | 0.0 | 0.0 | 0.00 | 0.03 | 0.03 | 86 | 1018.9 |
| 20260502113036 | 10 | 276 | 0.0 | 0.0 | 0.00 | 0.03 | 0.03 | 87 | 1019.0 |
| 20260502111511 | 10 | 270 | 0.0 | 0.0 | 0.00 | 0.03 | 0.03 | 87 | 1019.2 |
| 20260502110050 | 10 | 275 | 0.0 | 0.0 | 0.00 | 0.03 | 0.03 | 88 | 1019.2 |
| 20260502104547 | 10 | 287 | 0.0 | 0.0 | 0.00 | 0.03 | 0.03 | 88 | 1019.3 |
| 20260502103056 | 10 | 291 | 0.0 | 0.0 | 0.00 | 0.03 | 0.03 | 90 | 1019.4 |
| 20260502101545 | 10 | 239 | 0.0 | 0.0 | 0.00 | 0.03 | 0.03 | 90 | 1019.5 |
| 20260502091510 | 10 | 249 | 0.0 | 0.0 | 0.00 | 0.03 | 0.03 | 88 | 1019.7 |
| 20260502070016 | 8 | 165 | 0.0 | 0.0 | 0.00 | 0.03 | 0.03 | 88 | 1019.5 |
| 20260502064505 | 8 | 165 | 0.0 | 0.0 | 0.00 | 0.03 | 0.03 | 88 | 1019.7 |
| 20260502063107 | 8 | 287 | 0.0 | 0.0 | 0.00 | 0.03 | 0.03 | 90 | 1019.7 |
| 20260502061553 | 8 | 327 | 0.0 | 0.0 | 0.00 | 0.03 | 0.03 | 89 | 1019.8 |
| 20260502060044 | 7 | 271 | 0.0 | 0.0 | 0.00 | 0.03 | 0.03 | 86 | 1020.0 |
| 20260502054538 | 7 | 271 | 0.0 | 0.0 | 0.00 | 0.03 | 0.03 | 85 | 1019.9 |
| 20260502053026 | 7 | 271 | 0.0 | 0.0 | 0.00 | 0.03 | 0.03 | 85 | 1019.8 |
| 20260502051519 | 7 | 271 | 0.0 | 0.0 | 0.00 | 0.03 | 0.03 | 84 | 1019.9 |
| 20260502050031 | 7 | 271 | 0.0 | 0.0 | 0.00 | 0.03 | 0.03 | 82 | 1019.8 |
| 20260502044527 | 7 | 338 | 0.0 | 0.0 | 0.00 | 0.03 | 0.03 | 81 | 1019.8 |
| 20260502043107 | 7 | 338 | 0.0 | 0.0 | 0.00 | 0.03 | 0.03 | 81 | 1019.8 |
| 20260502041535 | 7 | 338 | 0.0 | 0.0 | 0.00 | 0.03 | 0.03 | 83 | 1019.7 |
| 20260502040017 | 7 | 338 | 0.0 | 0.0 | 0.00 | 0.03 | 0.03 | 81 | 1019.7 |
| 20260502034510 | 7 | 338 | 0.0 | 0.0 | 0.03 | 0.03 | 0.03 | 80 | 1019.8 |
| 20260502033051 | 7 | 338 | 0.0 | 0.0 | 0.03 | 0.03 | 0.03 | 80 | 1019.8 |
| 20260502031534 | 7 | 338 | 0.0 | 0.0 | 0.03 | 0.03 | 0.03 | 80 | 1020.0 |
| 20260502030042 | 7 | 338 | 0.0 | 0.0 | 0.03 | 0.03 | 0.03 | 85 | 1019.9 |
| 20260502024525 | 7 | 338 | 0.0 | 0.0 | 0.00 | 0.00 | 0.00 | 83 | 1020.0 |
| 20260502023039 | 7 | 331 | 0.0 | 0.0 | 0.00 | 0.00 | 0.00 | 80 | 1020.0 |
| 20260502021536 | 7 | 9 | 0.0 | 0.0 | 0.00 | 0.00 | 0.00 | 78 | 1019.8 |
| 20260502020057 | 7 | 9 | 0.0 | 0.0 | 0.00 | 0.00 | 0.00 | 75 | 1019.8 |
| 20260502014558 | 7 | 9 | 0.0 | 0.0 | 0.00 | 0.00 | 0.00 | 76 | 1020.1 |
| 20260502013031 | 7 | 9 | 0.0 | 0.0 | 0.00 | 0.00 | 0.00 | 77 | 1020.3 |
| 20260502011520 | 7 | 9 | 0.0 | 0.0 | 0.00 | 0.00 | 0.00 | 76 | 1020.4 |
| 20260502010100 | 7 | 9 | 0.0 | 0.0 | 0.00 | 0.00 | 0.00 | 75 | 1020.4 |
| 20260502004544 | 7 | 9 | 0.0 | 0.0 | 0.00 | 0.00 | 0.00 | 74 | 1020.4 |
| 20260502003033 | 7 | 9 | 0.0 | 0.0 | 0.00 | 0.00 | 0.00 | 74 | 1020.5 |
| 20260502001509 | 7 | 9 | 0.0 | 0.0 | 0.00 | 0.00 | 0.00 | 73 | 1020.5 |
| 20260502000051 | 7 | 9 | 0.0 | 0.0 | 0.00 | 0.00 | 0.00 | 73 | 1020.7 |
| 20260501234510 | 7 | 9 | 0.0 | 0.0 | 0.00 | 0.00 | 0.00 | 72 | 1020.9 |
| 20260501233035 | 7 | 9 | 0.0 | 0.0 | 0.00 | 0.00 | 0.00 | 70 | 1020.8 |
| 20260501231529 | 7 | 29 | 0.0 | 0.0 | 0.00 | 0.00 | 0.00 | 68 | 1020.7 |
| 20260501230031 | 7 | 29 | 0.0 | 0.0 | 0.00 | 0.00 | 0.00 | 69 | 1020.8 |
| 20260501224517 | 8 | 29 | 0.0 | 0.0 | 0.00 | 0.00 | 0.00 | 69 | 1020.9 |
| 20260501223036 | 8 | 14 | 0.0 | 0.0 | 0.00 | 0.00 | 0.00 | 67 | 1020.7 |
| 20260501221529 | 8 | 43 | 0.0 | 0.0 | 0.00 | 0.00 | 0.00 | 66 | 1020.8 |
| 20260501220014 | 8 | 13 | 0.0 | 0.0 | 0.00 | 0.00 | 0.00 | 67 | 1020.9 |
| 20260501214600 | 8 | 12 | 0.0 | 0.0 | 0.00 | 0.00 | 0.00 | 64 | 1021.0 |
| 20260501213013 | 9 | 11 | 0.0 | 0.0 | 0.00 | 0.00 | 0.00 | 63 | 1021.0 |
| 20260501211551 | 9 | 11 | 0.0 | 0.0 | 0.00 | 0.00 | 0.00 | 67 | 1021.1 |
| 20260501210001 | 10 | 11 | 0.0 | 0.0 | 0.00 | 0.00 | 0.00 | 72 | 1021.0 |
| 20260501204558 | 10 | 355 | 0.0 | 0.0 | 0.00 | 0.00 | 0.00 | 65 | 1021.1 |
| 20260501203051 | 10 | 88 | 0.0 | 0.0 | 0.00 | 0.00 | 0.00 | 71 | 1020.9 |
| 20260501201516 | 11 | 301 | 0.0 | 0.0 | 0.00 | 0.00 | 0.00 | 64 | 1020.9 |
| 20260501194559 | 11 | 193 | 0.0 | 3.2 | 0.00 | 0.00 | 0.00 | 64 | 1020.6 |
| 20260501193054 | 11 | 272 | 1.6 | 16.1 | 0.00 | 0.00 | 0.00 | 62 | 1020.5 |
| 20260501191538 | 12 | 336 | 0.0 | 0.0 | 0.00 | 0.00 | 0.00 | 60 | 1020.2 |
| 20260501190050 | 12 | 308 | 0.0 | 4.8 | 0.00 | 0.00 | 0.00 | 60 | 1020.0 |
| 20260501184510 | 12 | 309 | 4.8 | 16.1 | 0.00 | 0.00 | 0.00 | 59 | 1019.9 |
| 20260501183031 | 12 | 303 | 0.0 | 16.1 | 0.00 | 0.00 | 0.00 | 61 | 1019.7 |
| 20260501181529 | 12 | 291 | 1.6 | 14.5 | 0.00 | 0.00 | 0.00 | 61 | 1019.4 |
| 20260501180021 | 12 | 310 | 0.0 | 12.9 | 0.00 | 0.00 | 0.00 | 66 | 1019.3 |
| 20260501174601 | 13 | 267 | 0.0 | 6.4 | 0.00 | 0.00 | 0.00 | 62 | 1019.4 |
| 20260501173045 | 13 | 280 | 0.0 | 9.7 | 0.00 | 0.00 | 0.00 | 63 | 1019.3 |
| 20260501171542 | 13 | 236 | 0.0 | 4.8 | 0.00 | 0.00 | 0.00 | 67 | 1019.1 |
| 20260501170012 | 13 | 288 | 0.0 | 6.4 | 0.00 | 0.00 | 0.00 | 68 | 1019.0 |
| 20260501164559 | 14 | 286 | 0.0 | 1.6 | 0.00 | 0.00 | 0.00 | 68 | 1018.9 |
| 20260501163030 | 14 | 260 | 0.0 | 0.0 | 0.00 | 0.00 | 0.00 | 67 | 1018.9 |
| 20260501161558 | 15 | 243 | 0.0 | 6.4 | 0.00 | 0.00 | 0.00 | 68 | 1018.7 |
| 20260501160026 | 15 | 253 | 0.0 | 1.6 | 0.00 | 0.00 | 0.00 | 68 | 1018.7 |
| 20260501154524 | 15 | 284 | 0.0 | 1.6 | 0.00 | 0.00 | 0.00 | 68 | 1018.6 |
| 20260501153014 | 16 | 309 | 0.0 | 0.0 | 0.00 | 0.00 | 0.00 | 65 | 1018.5 |
| 20260501151612 | 16 | 230 | 0.0 | 3.2 | 0.00 | 0.00 | 0.00 | 66 | 1018.5 |
| 20260501150036 | 16 | 176 | 0.0 | 1.6 | 0.00 | 0.00 | 0.00 | 65 | 1018.3 |
| 20260501144519 | 17 | 143 | 0.0 | 1.6 | 0.00 | 0.00 | 0.00 | 61 | 1018.3 |
| 20260501143055 | 17 | 239 | 0.0 | 1.6 | 0.00 | 0.00 | 0.00 | 60 | 1018.5 |